weather.gov     
National Weather Service

Regional Weather Roundup
NWS Homepage
This page is being discontinued on March 12, 2014.
The same data is available at this site. Please update your bookmarks.
Thank you, and we apologize for the inconvenience.
Please send an email to SR-SRH.Webmaster@noaa.gov with any concerns.


Current Version
Previous Version:    01  02  03  04  05  06  07  08  09  10  11  12  13  14  15  16  17  18  19  20  21  22  23  24  25  26  27  28  29  30  
   31  32  33  34  35  36  37  38  39  40  41  42  43  44  45  46  47  48  49  50  51  52  53  54  55  56  57  58  59  60  
[Printable]
410
ASUS44 KFWD 240415
RWRTX
NORTH TEXAS HOURLY WEATHER ROUNDUP
NATIONAL WEATHER SERVICE FORT WORTH TX
1100 PM CDT WED APR 23 2014

NOTE: "FAIR" INDICATES FEW OR NO CLOUDS BELOW 12,000 FEET WITH NO
SIGNIFICANT WEATHER AND/OR OBSTRUCTIONS TO VISIBILITY.

TXZ118-119-240500-
DALLAS/FORT WORTH METROPLEX

CITY           SKY/WX    TMP DP  RH WIND       PRES   REMARKS
DFW AIRPORT    MOCLDY    76  58  53 S17G23    29.75F
DALLAS LOVE    PTCLDY    76  57  51 S17G26    29.77S
FTW MEACHAM    PTCLDY    75  59  57 SE20G29   29.74F
DAL-EXECUTIVE  PTCLDY    75  58  55 SE10G18   29.77F
FTW-ALLIANCE   MOCLDY    74  57  55 SE14G22   29.74F
FTW-NAS-JRB    PTCLDY    78  56  46 SE10G22   29.78F
FTW-SPINKS     PTCLDY    73  58  59 SE14G20   29.77F
ARLINGTON      PTCLDY    75  58  55 SE16      29.76F
GRAND PRAIRIE  PTCLDY    73  55  53 SE14G21   29.79F
ADDISON        CLEAR     76  56  51 S15G22    29.79F
MESQUITE       PTCLDY    69  62  77 SE7       29.80R
LANCASTER      PTCLDY    72  57  59 SE9       29.80S
$$

TXZ091>094-102>105-117-120-121-131>134-240500-
NORTH CENTRAL TEXAS

CITY           SKY/WX    TMP DP  RH WIND       PRES   REMARKS
SHRMAN/DENISON MOCLDY    72  58  62 SE7       29.80R
GAINESVILLE    CLOUDY    72  59  63 E6        29.80R
BOWIE          CLOUDY    74  60  60 E6        29.77S
BRIDGEPORT     MOCLDY    74  57  55 SE12G20   29.75S
DECATUR        MOCLDY    73  57  57 SE15G21   29.75F
DENTON         PTCLDY    74  57  55 SE16      29.75F
MCKINNEY       PTCLDY    73  63  70 SE10      29.78S
GREENVILLE     MOCLDY    70  59  68 SE5       29.82R
ROCKWALL       PTCLDY    72  63  74 SE7       29.79R
TERRELL        PTCLDY    72  65  78 S6        29.81R
WAXAHACHIE     PTCLDY    71  57  61 SE8       29.79F
CLEBURNE       PTCLDY    73  61  64 SE17      29.78S
GRANBURY       PTCLDY    75  61  61 SE10G18   29.75S
$$

TXZ083>090-098>101-113>116-127>130-139>142-154-155-240500-
WESTERN NORTH TEXAS

CITY           SKY/WX    TMP DP  RH WIND       PRES   REMARKS
WICHITA FALLS  CLOUDY    73  60  63 SE28G37   29.66R
WF-KICKAPOO    LGT RAIN  74  60  62 SE22G30   29.70R
VERNON         PTCLDY    73  58  60 SE23G29   29.64R
ABILENE        MOCLDY    72  61  68 SE16      29.70R
ABILENE-DYESS  PTCLDY    73  61  65 SE14      29.69R
BRECKENRIDGE   MOCLDY    79  60  51 S24G37    29.70R
GRAHAM         CLOUDY    76  58  54 E12       29.71F
MINERAL WELLS  PTCLDY    74  60  61 SE17      29.71S
STEPHENVILLE   MOCLDY    74  59  57 S16       29.78R
COMANCHE       MOCLDY    75  60  58 S17G24    29.74R
BROWNWOOD      PTCLDY    75  61  60 SE12G23   29.73R
COLEMAN        PTCLDY    76  59  55 SE8       29.73R
BRADY          CLEAR     75  59  57 SE20      29.72S
$$

TXZ143>147-156>162-174-175-240500-
CENTRAL TEXAS

CITY           SKY/WX    TMP DP  RH WIND       PRES   REMARKS
WACO           CLOUDY    74  62  66 S18G24    29.78S
WACO-MCGREGOR  CLOUDY    73  59  60 S16       29.80R
HILLSBORO      MOCLDY    74  59  58 SE20      29.77F
CORSICANA      MOCLDY    72  61  68 S14       29.82R
MEXIA          MOCLDY    72  63  73 SE10      29.81S
HEARNE         CLOUDY    73  64  71 SE15      29.83S
CAMERON        CLOUDY    73  63  70 S12G20    29.82R
TEMPLE         CLOUDY    73  59  60 SE26G33   29.82S
KILLEEN        CLEAR     73  63  68 SE21G30   29.77S
KILLEEN-SKYLRK CLOUDY   N/A N/A N/A SE23G29   29.77F
FORT HOOD      CLOUDY    75  61  61 SE18G30   29.77F
GATESVILLE     CLOUDY    73  63  68 S16       29.79S
HAMILTON       CLOUDY    75  61  62 S24G32    29.76R
LAMPASAS       CLOUDY    76  66  72 SE17G26   29.76F
$$

TXZ095>097-106>112-122>126-135>138-148>153-164>167-240500-
EAST TEXAS

CITY           SKY/WX    TMP DP  RH WIND       PRES   REMARKS
PARIS          CLEAR     70  55  60 SE12      29.83R
SULPHUR SPRNGS PTCLDY    72  57  59 SE7       29.84R
CLARKSVILLE    CLEAR     71  56  60 CALM      29.83R
MOUNT PLEASANT CLEAR     68  57  67 SE6       29.85S
GILMER         DRIZZLE   73  57  56 SE7       29.86R
MINEOLA        PTCLDY    73  59  60 SE7       29.83S
TYLER          PTCLDY    73  60  63 S12       29.83R
LONGVIEW       CLEAR     72  59  63 S8        29.85R
MARSHALL       CLEAR     71  58  64 S3        29.88R
ATHENS         PTCLDY    72  61  68 S12       29.82R
PALESTINE      MOCLDY    73  61  65 SE7       29.86R
JACKSONVILLE   MOCLDY    70  62  75 S9        29.88R
HENDERSON      PTCLDY    70  60  70 S6        29.87R
NACOGDOCHES    PTCLDY    70  63  78 S9        29.88R
LUFKIN         PTCLDY    72  64  76 S8        29.87R
$$

SUPPLEMENTAL OBSERVATIONS (CENTRAL)

CITY           SKY/WX    TMP DP  RH WIND       PRES   REMARKS
LAKE TEXOMA      N/A     72  59  64 SE5         N/A
CADDO GRASSLND   N/A     72  59  64 S7          N/A
PAT MAYSE LAKE   N/A     73  55  53 SE13        N/A
GREENVILLE       N/A     72  57  60 SE5         N/A
CEDAR HILL       N/A     73  57  56 SE12        N/A
PALESTINE        N/A     72  61  68 S9          N/A
LAKE LIMESTONE   N/A     73  64  73 S8G17       N/A
MCGREGOR         N/A    N/A N/A N/A S18G25      N/A
TEMPLE           N/A     73  63  68 S17G23      N/A
$$

SUPPLEMENTAL OBSERVATIONS (WEST)

CITY           SKY/WX    TMP DP  RH WIND       PRES   REMARKS
MILLERS CREEK    N/A    N/A N/A N/A SE20G25     N/A
POSSUM KINGDOM   N/A     75  59  57 SE17G28     N/A
LBJ GRASSLAND    N/A     73  57  56 SE14        N/A
GRANBURY         N/A     75  61  60 SE13        N/A
COMANCHE         N/A     73  59  60 SE17G26     N/A
HAMBY            N/A     73  59  60 S17G40      N/A
COLORADO BEND    N/A    N/A N/A N/A S16G26      N/A
$$

SUPPLEMENTAL OBSERVATIONS (EAST)

CITY           SKY/WX    TMP DP  RH WIND       PRES   REMARKS
CLARKSVILLE      N/A     70  57  64 SE9         N/A
TEXARKANA        N/A     66  55  68 SE3         N/A
LINDEN           N/A     66  57  72 E1          N/A
CADDO LAKE       N/A     66  59  77 CALM        N/A
GILMER           N/A     72  55  56 S6          N/A
HENDERSON        N/A     72  63  73 S7          N/A
LUFKIN           N/A     70  63  78 MISG        N/A
N SABINE NF      N/A     66  61  82 MISG        N/A
S SABINE NF      N/A     68  63  83 W2          N/A
$$

SUPPLEMENTAL OBSERVATIONS ARE A COLLECTION OF AUTOMATED INSTRUMENTS
THAT ARE MAINTAINED BY A VARIETY OF FEDERAL AND STATE AGENCIES.
CERTAIN ELEMENTS...SUCH AS HUMIDITY VALUES AND SUSTAINED WIND
SPEEDS...MAY BE APPROXIMATED.





U.S. Dept. of Commerce
NOAA National Weather Service
1325 East West Highway
Silver Spring, MD 20910
E-mail: w-nws.webmaster@noaa.gov
Page last modified: May 16, 2007
NATIONAL WEATHER SERVICE: for Safety, for Work, for Fun - FOR LIFE